Location: Newark
(25.0000°N, 73.5000°E)
Time: 21:29:30
(UTC+00:00)

NOAA 15 - Visible Passes

Search period start: 21 February 2020 00:00
Search period end: 02 March 2020 00:00
Orbit: 798 x 812 km, 98.7° (Epoch: 21 February)

Date Brightness Start Highest point End Pass type
(mag) Time Alt. Az. Time Alt. Az. Time Alt. Az.
21 Feb 6.3 14:32:28 10° SSW 14:37:13 34° W 14:41:59 10° NW visible
22 Feb 5.1 14:06:51 10° S 14:12:06 64° WSW 14:17:22 10° NNW visible
23 Feb 4.6 13:41:48 10° SSE 13:47:03 68° ENE 13:52:19 10° N visible
24 Feb 7.3 14:58:13 10° SW 15:01:49 18° W 15:05:26 10° NW visible
25 Feb 6.3 14:31:52 10° SSW 14:36:38 34° W 14:41:27 10° NW visible
26 Feb 5.0 14:06:17 10° S 14:11:32 66° WSW 14:16:48 10° NNW visible
27 Feb 4.6 13:41:14 10° SSE 13:46:29 67° ENE 13:51:45 10° N visible
28 Feb 7.3 14:57:35 10° SW 15:01:14 19° W 15:04:55 10° NW visible
29 Feb 6.2 14:31:16 10° SSW 14:36:04 35° W 14:40:54 10° NW visible
01 Mar 5.0 14:05:42 10° S 14:10:57 67° WSW 14:16:15 10° NNW visible
